HAIYANG 2D

导读 | 豆包AI

海洋二号D(HAIYANG 2D)卫星是中国于2021年5月19日发射的第四颗海洋动力环境卫星,作为国家民用空间基础设施第三颗业务卫星,它与B、C星共同构建了我国首个海洋动力环境卫星星座。该卫星配置雷达高度计、微波散射计等载荷,可监测海面风场、海浪、海温等参数,具备全球海域小时级观测能力,为海洋防灾减灾、气象预报、海上交通和科学研究提供关键支撑,多项指标达到国际先进水平。

基本信息
目录编号:
48621
目录名称:
HAIYANG 2D
国际标识:
2021-043A
轨道中心:
EARTH
卫星名称:
HAIYANG 2D
卫星全名:
--
卫星状态:
在轨 (已飞行1760 天)
发射日期:
2021-05-19 UTC
国别 :
中国 (CN)
星等 :
--
轨道信息
数据来源 国际轨道数据
星历时间: 2026-03-13T23:30:57+0800
11小时前
查看轨道信息
半长轴: 7330.078km
偏心率: 0.0010657
轨道倾角: 65.998°
近地点辐角 278.365°
升交点赤经 182.564°
平近点角 81.621°
近地点: 944.129km
远地点: 959.753km
周期: 104.093分钟
每日圈数: 13.833749
详细信息
使用方式:
暂无
2D轨道图
3D轨道图
轨道高度分析图
轨道倾角分析图
轨道综合分析图
查看轨道综合分析图